Location: Aciu?a
(46.2833°N, 22.4500°E)
Time: 10:04:13
(UTC+00:00)

Cosmos 2278 Rocket - Visible Passes

Search period start: 22 May 2022 00:00
Search period end: 01 June 2022 00:00
Orbit: 839 x 847 km, 71.0° (Epoch: 21 May)

Date Brightness Start Highest point End Pass type
(mag) Time Alt. Az. Time Alt. Az. Time Alt. Az.
22 May 2.9 00:55:21 10° NW 01:00:26 35° WSW 01:03:25 21° SSW visible
22 May 5.1 21:15:20 10° NNE 21:16:01 10° NNE 21:16:43 10° NE visible
22 May 3.3 22:56:28 10° NNW 23:01:50 40° NE 23:06:30 13° ESE visible
23 May 2.8 00:40:43 10° NW 00:45:51 36° WSW 00:48:17 25° SSW visible
23 May 3.4 22:41:54 10° NNW 22:47:13 39° NE 22:51:29 15° ESE visible
24 May 2.8 00:26:05 10° NW 00:31:16 38° WSW 00:33:17 28° SSW visible
24 May 3.4 22:27:20 10° NNW 22:32:36 37° NE 22:36:36 16° ESE visible
25 May 2.7 00:11:27 10° NW 00:16:42 39° WSW 00:18:23 32° SW visible
25 May 3.4 22:12:44 10° NNW 22:17:59 36° NE 22:21:47 17° ESE visible
25 May 2.7 23:56:50 10° NW 00:02:07 41° WSW 00:03:34 34° SW visible
26 May 3.5 21:58:10 10° NNW 22:03:21 35° NE 22:07:03 17° ESE visible
26 May 2.7 23:42:12 10° NW 23:47:32 43° WSW 23:48:50 37° SW visible
27 May 3.5 21:43:36 10° NNW 21:48:44 34° NE 21:52:22 17° ESE visible
27 May 2.6 23:27:35 10° NW 23:32:57 44° WSW 23:34:10 39° SW visible
28 May 3.5 21:29:01 10° NNW 21:34:07 32° NE 21:37:44 17° ESE visible
28 May 2.6 23:12:57 10° NW 23:18:22 46° WSW 23:19:33 40° SW visible
29 May 3.6 21:14:27 10° N 21:19:30 31° NE 21:23:10 16° ESE visible
29 May 2.5 22:58:21 10° NW 23:03:47 48° WSW 23:04:58 42° SW visible
30 May 3.6 20:59:52 10° N 21:04:52 30° NE 21:08:37 15° ESE visible
30 May 2.5 22:43:43 10° NW 22:49:12 50° WSW 22:50:26 43° SSW visible
31 May 3.6 20:45:18 10° N 20:50:15 29° NE 20:54:07 15° ESE visible
31 May 2.5 22:29:07 10° NW 22:34:37 53° WSW 22:35:57 43° SSW visible
